Hourly Weather Roundup
Issued by NWS Central Illinois

Home | Current Version | Previous Version | Text Only | Print | Product List | Glossary On
Versions: 1 2 3 4 5 6 7 8 9 10 11 12 13 14 15 16 17 18 19 20 21 22 23 24 25 26 27 28 29 30 31 32 33 34 35 36 37 38 39 40 41 42 43 44 45 46 47 48 49 50
000
NZUS43 KILX 292110
HWRILX

AREA WEATHER ROUNDUP
NATIONAL WEATHER SERVICE, LINCOLN IL
300 PM CST THU JAN 29 2015


CITY           SKY/WX    TMP DP  RH WIND       PRES   REMARKS
BLOOMINGTON    CLOUDY    36  31  82 NW17G24   30.11R WCI  26
CHAMPAIGN      CLOUDY    35  30  82 NW15      30.09R HAZE    WCI  25
DECATUR        CLOUDY    37  31  78 NW17G24   30.13R HAZE    WCI  27
FLORA          CLOUDY    37  33  84 NW10G23   30.17R FOG     WCI  30
GALESBURG      CLOUDY    34  32  93 NW16G26   30.16R WCI  23
JACKSONVILLE   CLOUDY    39  32  75 NW21G26   30.19R WCI  29
LACON          CLOUDY    35  30  82 NW12G20   30.12R WCI  27
LAWRENCEVILLE  CLOUDY    38  31  76 NW22G31   30.12R HAZE    WCI  27
LITCHFIELD     CLOUDY    37  32  84 NW14      30.18R WCI  28
$$


CITY           SKY/WX    TMP DP  RH WIND       PRES   REMARKS
LINCOLN        LGT RAIN  37  34  89 NW7G17    30.15R WCI  31
MACOMB         CLOUDY    36  30  80 NW21      30.22R WCI  24
MATTOON        CLOUDY    35  30  82 NW18      30.11R HAZE    WCI  24
MT CARMEL AP   CLOUDY    41  32  70 NW20G29   30.12R WCI  32
OLNEY-NOBLE AP CLOUDY    36  32  87 NW15G21   30.14R HAZE    WCI  26
PARIS          CLOUDY    35  31  87 NW17      30.09R WCI  24
PEORIA         CLOUDY    38  31  76 NW14G20   30.14R WCI  30
PONTIAC        CLOUDY    36  32  86 NW14      30.09R WCI  27
RANTOUL        CLOUDY    36  32  87 NW15G22   30.08R FOG     WCI  26
ROBINSON       CLOUDY    37  32  84 NW17G29   30.12R WCI  27
SPRINGFIELD    CLOUDY    38  31  76 NW18G25   30.16R WCI  28
TAYLORVILLE    CLOUDY    36  32  87 NW21G26   30.15R WCI  24
$$

...REGIONAL REPORTS...


CITY           SKY/WX    TMP DP  RH WIND       PRES   REMARKS
CHICAGO O`HARE CLOUDY    34  26  72 NW13G28   30.02R WCI  25
KANKAKEE       CLOUDY    34  29  83 NW13      30.05R WCI  25
MOLINE         CLOUDY    35  29  78 NW18G26   30.15R WCI  24
MOUNT VERNON   CLOUDY    39  28  65 NW6       30.18R WCI  35
PITTSFIELD     CLOUDY    38  31  78 NW15G22   30.23R WCI  29
QUINCY         CLOUDY    35  28  75 NW18      30.23R WCI  24
ROCKFORD       CLOUDY    36  25  64 NW20      30.08R WCI  25
$$


CITY           SKY/WX    TMP DP  RH WIND       PRES   REMARKS
BURLINGTON     CLOUDY    35  27  72 NW21G32   30.21R WCI  24
CEDAR RAPIDS   CLOUDY    33  26  75 NW26G32   30.20R WCI  20
DES MOINES     CLOUDY    37  24  59 NW22G36   30.33R WCI  26
KIRKSVILLE     CLOUDY    37  27  67 NW16G23   30.29R WCI  28
OTTUMWA        CLOUDY    35  25  66 NW26G38   30.27R WCI  22
ST LOUIS       CLOUDY    42  31  64 W16G23    30.21R WCI  34
$$


CITY           SKY/WX    TMP DP  RH WIND       PRES   REMARKS
TERRE HAUTE    CLOUDY    36  29  75 NW20      30.08R WCI  25
EVANSVILLE     CLOUDY    41  32  70 W7        30.14R
INDIANAPOLIS   CLOUDY    32  29  88 W18G26    30.01R FOG     WCI  20
LAFAYETTE      CLOUDY    34  27  75 NW16G25   30.02R WCI  24
MADISON        CLOUDY    35  23  61 NW17G23   30.05R WCI  25
MILWAUKEE      CLOUDY    35  23  61 NW21G26   30.00R WCI  24
$$





USA.gov is the U.S. government's official web portal to all federal, state and local government web resources and services.